Location: *
(46.3500°N, 10.9000°E)
Time: 22:45:00
(UTC+00:00)

Explorer 7 - Pass Details

Date: 21 April 2021
Orbit: 484 x 677 km, 50.3° (Epoch: 05 May)

Event Time Altitude Azimuth Distance (km) Brightness Sun altitude
Rises 17:19:45 0° 188° (S) 2,578 10.2 7.9°
Reaches altitude 10° 17:22:53 10° 160° (SSE) 1,732 9.1 7.4°
Maximum altitude 17:24:45 13° 132° (SE) 1,569 8.7 7.1°
Drops below altitude 10° 17:26:39 10° 103° (ESE) 1,784 8.8 6.8°
Sets 17:29:58 0° 76° (ENE) 2,729 9.8 6.2°
